Simultaneous Nadir Overpasses (SNOs) Predictions

Prediction of SNOs between AQUA and GOES-15 Satellite Orbit:

Table of predicted SNOs for the next 14.0 days since TLE Epoch: 5/9/2015
Index Date Time (AQUA) AQUA Lat,Lon GOES-15 Lat,Lon Distance(km) Time Diff (sec)
1 05/10/2015 10:26:53 -0.55,-132.72 0.06,-135.44 309.78 80
2 05/10/2015 22:48:16 -0.59,-137.91 -0.05,-135.41 284.57 80
3 05/12/2015 22:36:02 0.04,-134.94 -0.05,-135.39 50.70 80
4 05/14/2015 22:23:48 0.68,-131.98 -0.06,-135.37 385.61 80
5 05/15/2015 10:45:02 0.40,-137.14 0.05,-135.40 197.77 80
6 05/17/2015 10:32:48 -0.21,-134.17 0.05,-135.37 136.52 80
7 05/17/2015 22:54:10 -0.90,-139.36 -0.04,-135.33 458.12 80
8 05/19/2015 10:20:33 -0.85,-131.20 0.04,-135.34 470.46 80
9 05/19/2015 22:41:55 -0.25,-136.39 -0.04,-135.29 124.25 80
10 05/21/2015 22:29:39 0.36,-133.41 -0.04,-135.26 209.49 80
11 05/22/2015 10:50:54 0.72,-138.57 0.03,-135.28 374.30 80




NCC Satellite Simultaneous Nadir Overpasses (SNOs) Prediction Service
